STARLINK-5925, 55945

Orbit data source: Space-Track

STARLINK-5925, 55945 is a payload satellite owned by SpaceX/Seattle (US) in LEO that was launched on Fri, 17 Mar 2023 UTC via an FALCON 9 launch vehicle from the Air Force Western Test Range (AFWTR). Payload-class satellites include a variety of spacecraft equipped with specific instruments for various scientific and technological missions. These include communications satellites like Starlink; space stations such as the ISS; scientific satellites like the Hubble; Earth observation satellites from companies like Planet Labs, Umbra, and HawkEye 360; GPS; miniature CubeSats for education and research; and military/defense satellites.

Loading next visibility...
Identifier
55945, 2023-037AH
Orbit
LEO
Last TLE update
21 hours ago
Origin
Manufacturer
SpaceX/Seattle
Mission
Operational Commercial Communications
Bus & Motor
STARLINK, Unknown motor
Mass
305 kg wet, ~290 kg dry
Launch date (UTC)
2023-03-17 (2 years ago)
Launch vehicle
FALCON 9
Launch site
Air Force Western Test Range (AFWTR)
Object type
Payload
Rocket body
Debris
Shape & HBR
Box + 1 Pan, 9 m
Radar Cross Section
11.087 m², Large (>1 m²)

Expand to show TLE details & history

TLE from 21 hours ago
0 STARLINK-5925
1 55945U 23037AH  25128.73987075  .00002365  00000-0  20598-3 0  9990
2 55945  69.9987 333.2634 0003234 267.5388  92.5401 14.98327220118305
Epoch: 2025-05-08T17:45Z
Definitive object data (Epoch: 2025-05-08T17:45:24.832Z)
Latitude
-0.00003°
Longitude
-159.89611°
Altitude
574.589 km
Speed
7.574 km/s
True Right ascension
22h 13m 03s
True Declination
0° 00' 00"
Sunlit
Object was in daylight at TLE epoch
Visualization TLE readout
Latitude
-41.51344°
Longitude
179.24838°
Altitude
585.921 km
Speed
7.567 km/s
Apparent Right ascension
16h 13m 04s
Apparent Declination
-75° 10' 44"
Sunlit
Object is in daylight
Visualization observer readout
Local Sidereal Time
22:33:22
Azimuth
199.316° SSW
Elevation
-39.618°
Doppler factor
1
Orbital elements
Apogee altitude
572.26 km
Perigee altitude
567.766 km
Semi-major axis
6,948.15 km
Eccentricity
0.0003234
Inclination
69.9987°
RAAN
333.2634°
Arg. of periapsis
267.5388°
True anomaly
92.57712°
Mean anomaly
92.5401°
Eccentric anomaly
92.55861°
Mean motion
3.74748 °/min
BSTAR
0.00020598
Orbital period
96.06 mins
Loading maneuver chart data...
Loading SW <> Apogee altitude chart data...
Loading historical data...
Loading historical data...
Loading historical data...
Loading historical data...
Loading historical data...
Loading historical data...
Loading historical data...

STARLINK-5925 Visibility forecast

Observer location: undefined°, undefined°

Span
Click to sort rows by Start time (UTC) header in descending order
Start Az.
Max El. time (UTC)
Max El. Az.
Max El.
End time (UTC)
End Az.
8 mins2025-05-09 14:42:13.727Z188.229° SSW2025-05-09 14:46:13.727Z113.536° SE39.406°2025-05-09 14:50:13.727Z33.676° NE
6 mins2025-05-10 00:46:13.727Z325.77° NNW2025-05-10 00:49:13.727Z206.25° SW41.046°2025-05-10 00:52:13.727Z167.194° S
|